Zurück zum Katalog

STARLINK-5881

AktivKommunikationVLEO
NORAD 57054·PAYLOAD·🇺🇸 United States

Gestartet Jun 22, 2023 von Vandenberg Space Force Base

Loading…

Nächste Überflüge (nächste 24 Stunden)

TLE

AktuellSource: CelesTrak SupGP

Epoche: Sep 14, 2026, 21:22 UTC

1 57054C 23088G   26257.89076389 -.00038738  00000+0 -14032-2 0  2573
2 57054  42.9994 121.8967 0001166 248.7622  26.5533 15.27596040    13

Verfolge STARLINK-5881 in Echtzeit mit AllMySat

Download on the App Store